Home > Weather > Springfield > Past weeks

Flag for U.S.A. Weather for the Past 2 Weeks in Springfield, Missouri, U.S.A.

Now
32 °F

Clear.


Feels Like: 22 °F
Forecast: 15 / 35 °F
Wind: 14 mph from North

Location: Springfield Regional Airport

Current Time: Feb 12, 2016 at 9:39:38 PM

Latest Report: Feb 12, 2016 at 7:52 PM


Visibility: 10 mi

Pressure: 30.48 "Hg

Humidity: 52%

Dew point: 16 °F

Location of SpringfieldLocation

Historic Weather in Springfield — Graph

°F

Springfield Temperature Yesterday

Maximum temperature yesterday: 48 °F (at 2:52 PM)
Minimum temperature yesterday: 24 °F (at 6:52 AM)
Average temperature yesterday: 36 °F

High & Low Weather Summary for the Past Weeks

 TemperatureHumidityPressure
High69 °F (Jan 29, 2:52 PM)90% (Feb 2, 6:52 AM)30.48 "Hg (Feb 2, 6:52 AM)
Low18 °F (Feb 4, 7:52 AM)19% (Feb 1, 2:52 PM)29.44 "Hg (Feb 2, 5:52 AM)
Average40 °F53%30.02 "Hg
* Reported Jan 28 7:52 PM — Feb 12 7:52 PM, Springfield, Weather by CustomWeather, © 2016

Note: Actual official high and low records may vary slightly from our data, if they occured in-between our weather recording intervals... More about our weather records

Advertising

Springfield Weather History for the Previous 24 Hours

 ConditionsComfort  
Time TempWeatherWind HumidityBarometerVisibility
7:52 PM
Fri, Feb 12
32 °FClear.14 mph52%30.48 "Hg10 mi
6:52 PM35 °FClear.14 mph50%30.45 "Hg10 mi
5:52 PM38 °FClear.12 mph51%30.42 "Hg10 mi
4:52 PM41 °FSunny.15 mph47%30.40 "Hg10 mi
2:52 PM44 °FSunny.16 mph41%30.34 "Hg10 mi
1:52 PM45 °FSunny.16 mph40%30.34 "Hg10 mi
12:52 PM43 °FSunny.14 mph43%30.34 "Hg10 mi
11:52 AM43 °FSunny.17 mph45%30.35 "Hg10 mi
10:52 AM40 °FSunny.18 mph53%30.34 "Hg10 mi
9:52 AM37 °FSunny.18 mph57%30.31 "Hg10 mi
9:03 AM34 °FPartly sunny.13 mph67%30.26 "Hg10 mi
8:52 AM35 °FScattered clouds.13 mph67%30.29 "Hg10 mi
7:52 AM28 °FSunny.3 mph78%30.26 "Hg10 mi
6:52 AM28 °FClear.5 mph72%30.22 "Hg10 mi
5:52 AM29 °FClear.3 mph69%30.20 "Hg10 mi
4:52 AM27 °FClear.No wind72%30.18 "Hg10 mi
3:52 AM30 °FClear.5 mph66%30.16 "Hg10 mi
2:52 AM32 °FClear.7 mph64%30.15 "Hg10 mi
1:52 AM35 °FPassing clouds.8 mph59%30.14 "Hg10 mi
12:52 AM33 °FClear.8 mph61%30.14 "Hg10 mi
11:52 PM
Thu, Feb 11
37 °FPassing clouds.7 mph54%30.16 "Hg10 mi
10:52 PM37 °FClear.5 mph57%30.18 "Hg10 mi
9:52 PM38 °FClear.3 mph53%30.19 "Hg10 mi
Weather by CustomWeather, © 2016

See weather overviewHow to use our weather pages